www.pogodaiklimat.ru

Погода и климат >> Архив погоды >> Япония >> Миядзаки


ПОГОДА в Миядзаки

  • Прогноз погоды в Миядзаки
  • Монитор погоды в Миядзаки

АРХИВ ПОГОДЫ в Миядзаки

Время (UTC), дата Ветер
(напр.,м/с)
 
Видим.   Явления Облачность Т
(С)
Тd
(С)
f
(%)
Тe
(С)
Тes
(С)
Комфортность P
(гПа)
Po
(гПа)
Тmin
(С)
Tmax
(С)
R
(мм)
R24
(мм)
S
(см)
19 16.08 З 2 н/о н/о +25.2 +22.3 84 +33 +33 очень
душно
1003.4 1001.7
20 16.08 З 3 н/о н/о +25.3 +22.2 83 +33 +33 очень
душно
1003.6 1001.9
21 16.08 З 1 25 км 3/1
[Cu hum Ac trans Ci fib]
+23.4 +22.0 92 +32 +32 очень
душно
1004.2 1002.5
22 16.08 З 2 н/о н/о +25.6 +22.1 81 +33 +33 очень
душно
1004.5 1002.8
23 16.08 З 3 н/о н/о +27.1 +23.4 80 +37 +37 очень
душно
1004.8 1003.1
00 17.08 СЗ 2 30 км 1/0
[Ci fib]
+28.9 +22.2 67 +38 +47 очень
душно
1004.9 1003.2 +23.4
01 17.08 З 2 н/о н/о +30.0 +22.2 63 +39 +39 очень
душно
1004.6 1002.9
02 17.08 З 2 н/о н/о +31.3 +21.8 57 +40 +40 очень
душно
1004.4 1002.7
03 17.08 В 5 30 км 1/1
[Cu hum Ci fib]
+31.6 +22.3 58 +41 +51 опасность
перегрева
1004.4 1002.7
04 17.08 В 5 н/о н/о +30.5 +23.2 65 +41 +41 опасность
перегрева
1004.4 1002.7
05 17.08 ЮВ 5 н/о н/о +30.6 +21.4 58 +39 +39 очень
душно
1004.3 1002.6
06 17.08 В 5 25 км 3/1
[Cu hum Ci fib]
+29.9 +23.1 67 +40 +46 очень
душно
1003.8 1002.1
07 17.08 В 4 н/о н/о +29.8 +24.0 71 +41 +41 опасность
перегрева
1003.9 1002.2
08 17.08 В 4 н/о н/о +29.7 +24.8 75 +42 +42 опасность
перегрева
1003.7 1002.0
09 17.08 В 3 10 км 4/0
[Ci fib]
+28.7 +24.7 79 +41 +41 опасность
перегрева
1004.0 1002.3
10 17.08 СВ 2 н/о н/о +28.0 +24.4 81 +39 +39 очень
душно
1004.4 1002.7
12 17.08 С 1 10 км 4/3
[Sc Ci fib]
+27.5 +23.7 80 +38 +38 очень
душно
1005.5 1003.8 +32.6
13 17.08 З 2 н/о н/о +26.1 +23.8 87 +36 +36 очень
душно
1005.8 1004.1
14 17.08 СЗ 3 н/о н/о +25.7 +23.4 87 +35 +35 очень
душно
1006.0 1004.3
15 17.08 СЗ 3 н/о н/о +25.3 +23.2 88 +34 +34 очень
душно
1006.1 1004.4
16 17.08 З 2 н/о н/о +24.9 +23.3 91 +33 +33 очень
душно
1006.0 1004.3
18 17.08 З 2 10 км 5/0
[Ac trans]
+24.6 +23.2 92 +33 +33 очень
душно
1005.7 1004.0
21 17.08 СЗ 3 10 км 8/0
[Ac trans Cc]
+25.2 +22.1 83 +33 +33 очень
душно
1006.1 1004.4
00 18.08 С 2 10 км 9/3
[Cu hum Ac trans Ci sp]
+28.8 +24.6 78 +41 +45 опасность
перегрева
1007.5 1005.8 +24.3
03 18.08 В 3 10 км 9/1
[Cu hum Ac As]
+29.5 +24.6 75 +42 +48 опасность
перегрева
1007.8 1006.1
06 18.08 СВ 2 10 км {ливн. осадки} 9/3
[Cu med, cong Ac As Ci fib]
+30.2 +23.6 68 +41 +46 опасность
перегрева
1006.4 1004.7 0.0
09 18.08 В 3 8000 м дымка 9/3
[Cu med, cong Ac As]
+28.1 +24.9 83 +40 +40 очень
душно
1006.3 1004.6
12 18.08 СВ 2 8000 м дымка 9/5
[Cu med, cong Ac As]
+27.2 +25.8 92 +40 +40 очень
душно
1007.7 1006.0 +31.3 0.0
15 18.08 СВ 3 н/о н/о +26.7 +25.5 93 +39 +39 очень
душно
1007.8 1006.1
18 18.08 С 2 4000 м слаб. ливневой дождь 10/10
[Cu med, cong]
+25.7 +25.4 98 +37 +37 очень
душно
1007.4 1005.7 3
21 18.08 СЗ 2 4000 м слаб. ливневой дождь 10/10
[Cu med, cong]
+24.8 +24.0 95 +34 +34 очень
душно
1007.7 1006.0
00 19.08 СЗ 2 4000 м слаб. ливневой дождь, в посл. час гроза 10/10
[Cb cap]
+24.8 +24.5 98 +35 +35 очень
душно
1009.2 1007.5 +24.4 17
03 19.08 СВ 4 6000 м слаб. ливневой дождь 10/10
[Cu med, cong]
+25.5 +24.6 95 +36 +36 очень
душно
1008.7 1007.0
06 19.08 СВ 3 8000 м слаб. ливневой дождь 9/9
[Cu med, cong]
+26.3 +24.2 88 +37 +38 очень
душно
1008.6 1006.9 3
09 19.08 С 2 6000 м слаб. ливневой дождь 10/10
[Cu med, cong]
+25.1 +24.1 94 +35 +35 очень
душно
1008.2 1006.5
10 19.08 С 2 н/о н/о +24.9 +24.2 96 +34 +34 очень
душно
1008.7 1007.0
11 19.08 СВ 2 н/о н/о +25.1 +24.4 96 +35 +35 очень
душно
1009.1 1007.4
12 19.08 СВ 2 8000 м слаб. ливневой дождь 10/10
[Cu med, cong]
+25.1 +24.4 96 +35 +35 очень
душно
1009.1 1007.4 +26.7 6
13 19.08 СЗ 2 н/о н/о +25.2 +24.3 95 +35 +35 очень
душно
1009.6 1007.9
14 19.08 СЗ 2 н/о н/о +25.2 +24.7 97 +35 +35 очень
душно
1009.6 1007.9
15 19.08 З 1 н/о н/о +25.0 +24.8 99 +35 +35 очень
душно
1009.4 1007.7
16 19.08 С 1 н/о н/о +24.9 +24.7 99 +35 +35 очень
душно
1009.0 1007.3
17 19.08 З 1 н/о н/о +24.9 +24.7 99 +35 +35 очень
душно
1008.5 1006.8
18 19.08 В 1 8000 м в посл. час ливневой дождь 9/9
[Cu med, cong]
+25.0 +25.0 100 +36 +36 очень
душно
1008.6 1006.9 4
19 19.08 СВ 1 н/о н/о +25.2 +25.0 99 +36 +36 очень
душно
1008.9 1007.2
20 19.08 СЗ 2 н/о н/о +24.8 +24.8 100 +35 +35 очень
душно
1008.5 1006.8
21 19.08 С 1 9000 м в посл. час ливневой дождь 9/9
[Cu med, cong Ci sp]
+24.9 +24.9 100 +35 +35 очень
душно
1009.0 1007.3
22 19.08 СВ 2 н/о н/о +25.6 +25.4 99 +37 +37 очень
душно
1009.8 1008.1
23 19.08 З 2 н/о н/о +25.9 +25.4 97 +38 +38 очень
душно
1009.8 1008.1
00 20.08 СЗ 1 8000 м дымка {ливн. осадки} 10/6
[Cu Sc Ac As]
+26.8 +25.9 95 +40 +41 очень
душно
1010.2 1008.5 +24.8 4
01 20.08 В 1 н/о н/о +27.7 +26.1 91 +42 +42 опасность
перегрева
1010.3 1008.6
02 20.08 Ю 1 н/о н/о +28.6 +26.0 86 +43 +43 опасность
перегрева
1010.2 1008.5
03 20.08 ЮЗ 1 15 км {ливн. осадки} 10/8
[Cu Sc Ac As]
+29.6 +26.0 81 +44 +46 опасность
перегрева
1010.1 1008.4
04 20.08 В 3 н/о н/о +30.3 +26.7 81 +47 +47 опасность
перегрева
1009.5 1007.8
05 20.08 В 3 н/о н/о +31.0 +26.1 75 +46 +46 опасность
перегрева
1009.0 1007.3
06 20.08 ЮВ 4 20 км {ливн. осадки} 9/6
[Cb calv Ac trans Ci sp]
+30.9 +26.6 78 +48 +50 опасность
перегрева
1008.7 1007.0 0.0
07 20.08 ЮЗ 3 н/о н/о +31.5 +24.9 68 +45 +45 опасность
перегрева
1009.0 1007.3
08 20.08 ЮВ 2 н/о н/о +30.1 +26.3 80 +46 +46 опасность
перегрева
1009.1 1007.4
09 20.08 Ю 2 20 км 9/3
[Cb calv Ac trans Ci sp]
+30.2 +25.9 78 +45 +45 опасность
перегрева
1009.5 1007.8
10 20.08 Ю 3 н/о н/о +29.4 +25.4 79 +43 +43 опасность
перегрева
1010.1 1008.4
11 20.08 Ю 3 н/о н/о +28.8 +25.2 81 +42 +42 опасность
перегрева
1010.4 1008.7
12 20.08 Ю 3 15 км 8/1
[Cu hum Ci sp]
+28.3 +24.5 80 +40 +40 очень
душно
1011.1 1009.4 +31.9 0.0
13 20.08 СЗ 1 н/о н/о +28.0 +23.8 78 +39 +39 очень
душно
1011.5 1009.8
14 20.08 ЮЗ 1 н/о н/о +27.6 +24.1 81 +38 +38 очень
душно
1011.3 1009.6
15 20.08 СЗ 2 н/о н/о +26.7 +25.1 91 +38 +38 очень
душно
1011.2 1009.5
16 20.08 З 2 н/о н/о +26.4 +25.4 94 +38 +38 очень
душно
1010.7 1009.0
17 20.08 З 2 н/о н/о +26.0 +25.3 96 +38 +38 очень
душно
1010.3 1008.6
18 20.08 СЗ 1 15 км 9/0
[Ac As]
+25.6 +25.3 98 +37 +37 очень
душно
1010.4 1008.7
20 20.08 З 2 н/о н/о +24.9 +24.6 98 +35 +35 очень
душно
1010.5 1008.8
21 20.08 СЗ 1 20 км 9/1
[Cu med, cong Ac trans Ci sp]
+25.0 +24.5 97 +35 +35 очень
душно
1010.6 1008.9
22 20.08 З 1 н/о н/о +26.1 +24.5 91 +37 +37 очень
душно
1010.9 1009.2
23 20.08 Ю 2 н/о н/о +28.8 +23.9 75 +40 +40 очень
душно
1010.9 1009.2
00 21.08 ЮЗ 2 25 км 8/1
[Cu hum Ac trans Ci fib]
+30.3 +22.5 63 +40 +45 очень
душно
1011.2 1009.5 +24.7
01 21.08 З 2 н/о н/о +31.0 +23.1 63 +41 +41 опасность
перегрева
1011.2 1009.5
02 21.08 В 3 н/о н/о +30.8 +24.5 69 +43 +43 опасность
перегрева
1011.2 1009.5
03 21.08 В 3 30 км 6/3
[Cu hum Ac trans Ci fib]
+31.6 +25.2 69 +46 +55 опасность
перегрева
1010.8 1009.1
05 21.08 ЮВ 3 н/о н/о +33.0 +25.8 66 +48 +48 опасность
перегрева
1009.6 1007.9
06 21.08 ЮВ 5 30 км 4/3
[Cu med, cong Ac trans Ci fib]
+32.6 +25.7 67 +48 +52 опасность
перегрева
1009.0 1007.3
07 21.08 ЮВ 5 н/о н/о +31.2 +25.8 73 +46 +46 опасность
перегрева
1009.0 1007.3
09 21.08 ЮВ 3 30 км 3/1
[Cu med, cong Ci fib]
+30.9 +26.0 75 +46 +47 опасность
перегрева
1009.2 1007.5
10 21.08 Ю 3 н/о н/о +29.9 +25.2 76 +43 +43 опасность
перегрева
1009.9 1008.2
11 21.08 ЮЗ 3 н/о н/о +29.4 +25.2 78 +43 +43 опасность
перегрева
1010.6 1008.9
12 21.08 В 1 20 км 3/1
[Cu hum Ci sp]
+28.2 +26.2 89 +43 +43 опасность
перегрева
1011.2 1009.5 +33.7
13 21.08 ЮЗ 2 н/о н/о +28.3 +24.7 81 +40 +40 очень
душно
1011.6 1009.9
15 21.08 ЮЗ 3 н/о н/о +27.6 +24.1 81 +38 +38 очень
душно
1011.4 1009.7
16 21.08 З 2 н/о н/о +27.0 +23.7 82 +37 +37 очень
душно
1010.8 1009.1
17 21.08 СЗ 2 н/о н/о +26.2 +23.9 87 +36 +36 очень
душно
1010.5 1008.8
18 21.08 З 1 20 км 1/1
[Cu hum Ac trans]
+25.7 +24.1 91 +36 +36 очень
душно
1010.5 1008.8
19 21.08 З 1 н/о н/о +25.3 +24.1 93 +35 +35 очень
душно
1010.6 1008.9
20 21.08 З 2 н/о н/о +25.1 +23.9 93 +34 +34 очень
душно
1010.6 1008.9
21 21.08 ЮЗ 2 30 км 1/1
[Cu med, cong Ac trans]
+25.3 +23.9 92 +35 +35 очень
душно
1010.8 1009.1
22 21.08 ЮЗ 2 н/о н/о +26.7 +23.8 84 +37 +37 очень
душно
1010.8 1009.1
23 21.08 З 1 н/о н/о +27.6 +24.1 81 +38 +38 очень
душно
1011.1 1009.4
00 22.08 ЮЗ 2 30 км 1/1
[Cu med, cong Ac trans]
+30.2 +23.6 68 +41 +50 опасность
перегрева
1011.1 1009.4 +24.9
01 22.08 З 2 н/о н/о +31.1 +24.0 66 +43 +43 опасность
перегрева
1010.8 1009.1
02 22.08 В 4 н/о н/о +31.1 +24.5 68 +44 +44 опасность
перегрева
1010.3 1008.6
03 22.08 В 3 30 км 8/8
[Cu med, cong]
+31.4 +25.3 70 +45 +49 опасность
перегрева
1010.0 1008.3
04 22.08 ЮВ 3 н/о н/о +32.7 +25.5 66 +47 +47 опасность
перегрева
1009.0 1007.3
05 22.08 В 1 н/о н/о +33.0 +25.3 64 +47 +47 опасность
перегрева
1008.5 1006.8
06 22.08 З 4 25 км 8/5
[Cb calv Ac As Ci fib]
+34.6 +24.5 56 +47 +50 опасность
перегрева
1008.3 1006.6
07 22.08 ЮЗ 4 н/о н/о +33.7 +24.6 59 +47 +47 опасность
перегрева
1008.2 1006.5
08 22.08 ЮЗ 5 н/о н/о +32.8 +24.6 62 +46 +46 опасность
перегрева
1008.5 1006.8
09 22.08 ЮЗ 6 30 км 6/3
[Cu med, cong Ac trans Ci fib]
+32.0 +24.1 63 +44 +44 опасность
перегрева
1008.5 1006.8
11 22.08 З 4 н/о н/о +30.1 +24.3 71 +42 +42 опасность
перегрева
1009.5 1007.8
12 22.08 З 4 20 км 4/1
[Cu hum Ci fib]
+29.4 +24.7 76 +42 +42 опасность
перегрева
1010.3 1008.6 +34.9
13 22.08 З 3 н/о н/о +29.0 +24.6 77 +41 +41 опасность
перегрева
1010.3 1008.6
14 22.08 ЮЗ 3 н/о н/о +28.5 +24.3 78 +40 +40 очень
душно
1010.1 1008.4
15 22.08 ЮЗ 4 н/о н/о +28.4 +24.4 79 +40 +40 очень
душно
1010.2 1008.5
16 22.08 ЮЗ 3 н/о н/о +28.2 +24.6 81 +40 +40 очень
душно
1009.9 1008.2
17 22.08 ЮЗ 4 н/о н/о +27.7 +24.8 84 +39 +39 очень
душно
1009.6 1007.9
18 22.08 ЮЗ 3 20 км 9/8
[Sc Ac trans]
+27.8 +24.7 83 +39 +39 очень
душно
1009.4 1007.7
19 22.08 ЮЗ 2 н/о н/о +27.6 +24.5 83 +39 +39 очень
душно
1009.0 1007.3
20 22.08 З 3 н/о н/о +27.6 +24.5 83 +39 +39 очень
душно
1009.2 1007.5
21 22.08 З 3 20 км 9/1
[Cu med, cong Ac As Ci fib]
+27.6 +24.5 83 +39 +39 очень
душно
1009.8 1008.1
22 22.08 З 4 н/о н/о +28.0 +24.6 82 +40 +40 очень
душно
1010.1 1008.4
23 22.08 З 5 н/о н/о +28.6 +24.6 79 +41 +41 опасность
перегрева
1010.6 1008.9
00 23.08 З 3 15 км в посл. час ливневой дождь 9/3
[Cu med, cong Ac As]
+28.8 +25.2 81 +42 +44 опасность
перегрева
1010.7 1009.0 +27.4 0.0
01 23.08 З 4 н/о н/о +29.6 +24.9 76 +42 +42 опасность
перегрева
1011.3 1009.6
02 23.08 З 4 н/о н/о +27.5 +25.3 88 +40 +40 очень
душно
1010.7 1009.0
03 23.08 З 4 20 км {ливн. осадки} 9/3
[Cu med, cong Ac As]
+27.5 +24.6 84 +39 +42 очень
душно
1010.5 1008.8
04 23.08 З 4 н/о н/о +28.4 +24.8 81 +41 +41 опасность
перегрева
1010.4 1008.7
05 23.08 З 4 н/о н/о +27.6 +25.2 87 +40 +40 очень
душно
1009.8 1008.1
06 23.08 З 5 20 км {ливн. осадки} 9/3
[Cu med, cong Ac As]
+29.1 +24.9 78 +42 +44 опасность
перегрева
1009.2 1007.5 1
07 23.08 З 4 н/о н/о +30.0 +25.3 76 +44 +44 опасность
перегрева
1009.2 1007.5
08 23.08 З 4 н/о н/о +29.3 +25.3 79 +43 +43 опасность
перегрева
1009.2 1007.5
09 23.08 З 3 20 км в посл. час ливневой дождь 9/3
[Cu med, cong Ac As Ci fib]
+29.2 +25.2 79 +42 +43 опасность
перегрева
1009.5 1007.8
11 23.08 З 2 н/о н/о +28.2 +25.0 83 +41 +41 опасность
перегрева
1010.5 1008.8
12 23.08 З 3 15 км в посл. час ливневой дождь 9/3
[Cu med, cong Ac As Ci fib]
+27.8 +24.9 84 +40 +40 очень
душно
1010.9 1009.2 +30.4 1
13 23.08 З 3 н/о н/о +27.6 +24.5 83 +39 +39 очень
душно
1011.2 1009.5
14 23.08 З 2 н/о н/о +26.6 +24.5 88 +37 +37 очень
душно
1011.2 1009.5
15 23.08 ЮЗ 2 н/о н/о +25.8 +24.8 94 +37 +37 очень
душно
1011.1 1009.4
16 23.08 З 4 н/о н/о +24.4 +23.6 95 +33 +33 очень
душно
1011.6 1009.9
17 23.08 З 3 н/о н/о +25.0 +24.2 95 +34 +34 очень
душно
1010.7 1009.0

 

Местоположение метеостанции Миядзаки (Япония): широта 31.93 долгота 131.41 высота над уровнем моря 15 м.

В архиве по умолчанию представлена погода в Миядзаки за последнюю неделю. Архивные данные за месяц целиком и за предыдущие месяцы, начиная с января 2011 года, Вы можете получить, выбрав интересующий диапазон дат из раскрывающегося списка и нажав кнопку "Ввод!".


*Определитесь, кто Вы:
робот инопланетянин человек

Внимание! Время в таблицах - всемирное. Для получения местного времени необходимо прибавить поправку, которая равна 9 ч.

Смотрите также архив погоды в соседних городах и на ближайших метеорологических станциях:

Погода в Мияконодзё (Япония) (38 км)
Погода в Абурацу (Япония) (39 км)
Погода в Хитоёси (Япония) (70 км)
Погода в Нобеоке (Япония) (76 км)
Погода в Кагосиме (Япония) (92 км)
Погода на Асо (Япония) (111 км)
Погода в Акуне (Япония) (116 км)
Погода в Кумамото (Япония) (120 км)
Погода в Макурадзаки (Япония) (128 км)
Погода в Ушибуке (Япония) (132 км)

Пояснения к столбцам:

Ветер - указаны скорость ветра в м/с - средняя за 10 мин, порывы в срок и между сроками (в фигурных скобках) и направление, откуда дует ветер: С - северный, СВ - северо-восточный, В - восточный, ЮВ - юго-восточный, Ю - южный, ЮЗ - юго-западный, З - западный, СЗ - северо-западный.
Видимость - горизонтальная дальность видимости в метрах или километрах. При видимости от 1 до 10 км при отсутствии осадков обычно наблюдается дымка, при ухудшении видимости до 1 км и менее - туман. В сухую погоду видимость может ухудшаться дымом, пылью или мглою.
Явления - указаны атмосферные явления, наблюдавшиеся в срок или в последний час перед сроком; фигурными скобками обозначены явления, наблюдавшиеся между сроками (за 1-3 часа до срока); квадратными скобками обозначены град или гололедные отложения с указанием их диаметра в мм.
Облачность - указаны через наклонную черту общая и нижняя облачность в баллах и высота нижней границы облаков в метрах; квадратными скобками обозначены формы облаков: Ci - перистые, Cs - перисто-слоистые, Cc - перисто-кучевые, Ac - высококучевые, As - высокослоистые, Sc - слоисто-кучевые, Ns - слоисто-дождевые, Cu - кучевые, Cb - кучево-дождевые. Подробнее классификацию облаков см. в Атласе облаков (PDF).
T - Температура воздуха - температура, измеренная на высоте 2 м над землей.
Td - Температура точки росы - температура, при понижении до которой содержащийся в воздухе водяной пар достигнет насыщения.
f - Относительная влажность воздуха - влажноcть воздуха, измеренная на высоте 2 м над землей.
Te - Эффективная температура - температура, которую ощущает одетый по сезону человек в тени. Характеристика душности погоды. При расчете учитывается влияние влажности воздуха и скорости ветра на теплоощущения человека.
Tes - Эффективная температура на солнце - температура, которую ощущает человек, с поправкой на солнечный нагрев. Характеристика знойности погоды. Зависит от высоты солнца над горизонтом, облачности и скорости ветра. Ночью, в пасмурную погоду, а также при ветре 12 м/с и более поправка равна нулю.
P - Атмосферное давление - приведенное к уровню моря атмосферное давление.
Po - Атмосферное давление - измеренное на уровне метеостанции атмосферное давление.
Tmin - Минимальная температура - минимум температуры воздуха на высоте 2 м над землей.
Tmax - Максимальная температура - максимум температуры воздуха на высоте 2 м над землей.
R - Количество осадков - Количество выпавших осадков за период времени, мм. При наведении курсора мыши на число - период времени, за который выпало указанное количество осадков.
R24 - Количество осадков - Количество выпавших осадков за 24 часа, мм.
S - Снежный покров - Высота снежного покрова, см. При наведении курсора мыши на число - состояние снежного покрова и степень покрытия местности в баллах.